Time,TemperatureF,DewpointF,PressureIn,WindDirection,WindDirectionDegrees,WindSpeedMPH,WindSpeedGustMPH,Humidity,HourlyPrecipIn,Conditions,Clouds,dailyrainin,SolarRadiationWatts/m^2,SoftwareType,DateUTC
2013-06-24 00:02:00,52.0,49.0,29.64,WSW,245,0.0,1.0,89,0.00,,,0.17,0.000000,,2013-06-24 08:02:00,
2013-06-24 00:12:00,52.0,49.0,29.64,WSW,245,0.0,0.0,89,0.00,,,0.17,0.000000,,2013-06-24 08:12:00,
2013-06-24 00:33:00,52.0,49.0,29.64,WSW,245,0.0,2.0,89,0.00,,,0.17,0.000000,,2013-06-24 08:33:00,
2013-06-24 00:43:00,52.0,49.0,29.63,WSW,254,0.0,2.0,90,0.00,,,0.17,0.000000,,2013-06-24 08:43:00,
2013-06-24 00:52:00,52.0,49.0,29.64,SW,219,0.0,2.0,90,0.00,,,0.17,0.000000,,2013-06-24 08:52:00,
2013-06-24 01:02:00,51.0,48.0,29.64,South,186,1.0,3.0,90,0.00,,,0.17,0.000000,,2013-06-24 09:02:00,
2013-06-24 01:12:00,51.0,48.0,29.64,SW,221,1.0,5.0,91,0.00,,,0.17,0.000000,,2013-06-24 09:12:00,
2013-06-24 01:33:00,51.0,49.0,29.64,SSW,209,1.0,3.0,92,0.00,,,0.17,0.000000,,2013-06-24 09:33:00,
2013-06-24 01:43:00,51.0,49.0,29.64,South,189,2.0,6.0,92,0.00,,,0.17,0.000000,,2013-06-24 09:43:00,
2013-06-24 02:02:00,51.0,49.0,29.64,SSW,207,0.0,3.0,92,0.00,,,0.17,0.000000,,2013-06-24 10:02:00,
2013-06-24 02:12:00,51.0,49.0,29.65,SW,223,0.0,3.0,92,0.00,,,0.17,0.000000,,2013-06-24 10:12:00,
2013-06-24 02:22:00,51.0,49.0,29.65,SW,223,0.0,3.0,92,0.00,,,0.17,0.000000,,2013-06-24 10:22:00,
2013-06-24 02:34:00,51.0,48.0,29.65,SW,215,2.0,8.0,91,0.00,,,0.17,0.000000,,2013-06-24 10:34:00,
2013-06-24 02:44:00,51.0,48.0,29.65,SSW,204,2.0,7.0,91,0.00,,,0.17,0.000000,,2013-06-24 10:44:00,
2013-06-24 02:54:00,51.0,48.0,29.65,SSW,198,1.0,6.0,91,0.00,,,0.16,0.000000,,2013-06-24 10:54:00,
2013-06-24 03:02:00,51.0,48.0,29.65,SSW,206,2.0,8.0,91,0.00,,,0.16,0.000000,,2013-06-24 11:02:00,
2013-06-24 03:12:00,51.0,49.0,29.65,South,175,1.0,5.0,92,0.00,,,0.16,0.000000,,2013-06-24 11:12:00,
2013-06-24 03:24:00,51.0,49.0,29.65,South,175,1.0,5.0,92,0.00,,,0.16,0.000000,,2013-06-24 11:24:00,
2013-06-24 03:33:00,51.0,49.0,29.65,WSW,257,1.0,5.0,92,0.00,,,0.16,0.000000,,2013-06-24 11:33:00,
2013-06-24 03:43:00,51.0,49.0,29.65,WNW,287,1.0,3.0,92,0.00,,,0.16,0.000000,,2013-06-24 11:43:00,
2013-06-24 03:53:00,51.0,49.0,29.65,SW,236,1.0,5.0,92,0.00,,,0.16,0.000000,,2013-06-24 11:53:00,
2013-06-24 04:02:00,50.0,48.0,29.65,SSW,210,1.0,5.0,92,0.00,,,0.16,0.000000,,2013-06-24 12:02:00,
2013-06-24 04:12:00,50.0,48.0,29.65,SSW,210,1.0,5.0,92,0.00,,,0.16,0.000000,,2013-06-24 12:12:00,
2013-06-24 04:34:00,50.0,48.0,29.65,South,170,0.0,3.0,92,0.00,,,0.15,0.000000,,2013-06-24 12:34:00,
2013-06-24 04:44:00,50.0,48.0,29.66,SW,228,1.0,7.0,92,0.00,,,0.15,0.000000,,2013-06-24 12:44:00,
2013-06-24 04:53:00,50.0,48.0,29.66,SW,228,1.0,7.0,92,0.00,,,0.15,0.000000,,2013-06-24 12:53:00,
2013-06-24 05:02:00,50.0,48.0,29.66,SSE,168,1.0,7.0,92,0.00,,,0.15,0.000000,,2013-06-24 13:02:00,
2013-06-24 05:12:00,50.0,48.0,29.66,SSW,205,0.0,3.0,92,0.00,,,0.15,0.000000,,2013-06-24 13:12:00,
2013-06-24 05:22:00,50.0,48.0,29.66,SW,218,0.0,3.0,92,0.00,,,0.15,5.000000,,2013-06-24 13:22:00,
2013-06-24 05:32:00,50.0,48.0,29.66,NW,309,0.0,3.0,92,0.00,,,0.14,5.000000,,2013-06-24 13:32:00,
2013-06-24 05:42:00,50.0,48.0,29.66,West,261,0.0,1.0,92,0.00,,,0.14,7.000000,,2013-06-24 13:42:00,
2013-06-24 06:02:00,50.0,48.0,29.66,South,184,0.0,3.0,92,0.00,,,0.14,9.000000,,2013-06-24 14:02:00,
2013-06-24 06:11:00,50.0,48.0,29.66,SW,227,1.0,3.0,93,0.00,,,0.13,9.000000,,2013-06-24 14:11:00,
2013-06-24 06:22:00,50.0,48.0,29.66,SSW,199,0.0,2.0,93,0.00,,,0.13,14.000000,,2013-06-24 14:22:00,
2013-06-24 06:34:00,50.0,48.0,29.66,WSW,242,0.0,3.0,93,0.00,,,0.13,19.000000,,2013-06-24 14:34:00,
2013-06-24 06:43:00,50.0,48.0,29.67,South,186,1.0,3.0,93,0.00,,,0.12,11.000000,,2013-06-24 14:43:00,
2013-06-24 06:53:00,50.0,48.0,29.67,SSE,167,1.0,5.0,92,0.00,,,0.12,9.000000,,2013-06-24 14:53:00,
2013-06-24 07:02:00,50.0,48.0,29.68,South,173,1.0,3.0,92,0.00,,,0.12,16.000000,,2013-06-24 15:02:00,
2013-06-24 07:12:00,50.0,48.0,29.68,South,173,1.0,3.0,92,0.00,,,0.12,16.000000,,2013-06-24 15:12:00,
2013-06-24 07:34:00,51.0,49.0,29.68,SSW,192,0.0,3.0,93,0.00,,,0.10,33.000000,,2013-06-24 15:34:00,
2013-06-24 07:43:00,51.0,49.0,29.68,WNW,290,1.0,3.0,93,0.00,,,0.10,46.000000,,2013-06-24 15:43:00,
2013-06-24 07:53:00,51.0,49.0,29.68,SW,235,0.0,3.0,93,0.00,,,0.10,67.000000,,2013-06-24 15:53:00,
2013-06-24 08:02:00,51.0,49.0,29.68,South,188,2.0,5.0,93,0.00,,,0.09,81.000000,,2013-06-24 16:02:00,
2013-06-24 08:11:00,51.0,49.0,29.68,South,188,2.0,5.0,93,0.00,,,0.09,81.000000,,2013-06-24 16:11:00,
2013-06-24 08:23:00,51.0,49.0,29.67,SSE,164,1.0,6.0,92,0.00,,,0.05,65.000000,,2013-06-24 16:23:00,
2013-06-24 09:02:00,52.0,50.0,29.68,South,173,0.0,3.0,92,0.00,,,0.04,113.000000,,2013-06-24 17:02:00,
2013-06-24 09:12:00,52.0,50.0,29.68,South,173,0.0,3.0,92,0.00,,,0.04,113.000000,,2013-06-24 17:12:00,
2013-06-24 09:22:00,53.0,51.0,29.68,South,173,0.0,2.0,92,0.00,,,0.02,190.000000,,2013-06-24 17:22:00,
2013-06-24 09:33:00,53.0,51.0,29.68,South,173,0.0,2.0,92,0.00,,,0.02,190.000000,,2013-06-24 17:33:00,
2013-06-24 09:54:00,55.0,52.0,29.68,WSW,237,2.0,5.0,88,0.00,,,0.02,737.000000,,2013-06-24 17:54:00,
2013-06-24 10:01:00,56.0,52.0,29.68,WSW,246,1.0,5.0,86,0.00,,,0.02,591.000000,,2013-06-24 18:01:00,
2013-06-24 10:23:00,56.0,51.0,29.68,WSW,258,1.0,5.0,84,0.00,,,0.00,406.000000,,2013-06-24 18:23:00,
2013-06-24 10:33:00,56.0,52.0,29.68,SSW,208,1.0,7.0,85,0.00,,,0.00,621.000000,,2013-06-24 18:33:00,
2013-06-24 10:43:00,56.0,51.0,29.68,SSE,168,3.0,6.0,83,0.00,,,0.00,719.000000,,2013-06-24 18:43:00,
2013-06-24 10:53:00,56.0,51.0,29.68,SSE,168,3.0,6.0,83,0.00,,,0.00,719.000000,,2013-06-24 18:53:00,
2013-06-24 11:02:00,57.0,52.0,29.68,WNW,292,1.0,5.0,82,0.00,,,0.00,724.000000,,2013-06-24 19:02:00,
2013-06-24 11:12:00,58.0,52.0,29.68,SW,230,1.0,5.0,81,0.00,,,0.00,577.000000,,2013-06-24 19:12:00,
2013-06-24 11:42:00,58.0,53.0,29.68,West,260,2.0,7.0,82,0.00,,,0.00,766.000000,,2013-06-24 19:42:00,
2013-06-24 11:53:00,58.0,53.0,29.68,West,260,2.0,7.0,82,0.00,,,0.00,766.000000,,2013-06-24 19:53:00,
2013-06-24 12:02:00,59.0,52.0,29.68,WSW,243,2.0,6.0,79,0.00,,,0.00,721.000000,,2013-06-24 20:02:00,
2013-06-24 12:11:00,59.0,52.0,29.68,WSW,243,2.0,6.0,79,0.00,,,0.00,721.000000,,2013-06-24 20:11:00,
2013-06-24 12:22:00,58.0,52.0,29.68,WNW,292,2.0,5.0,80,0.00,,,0.00,512.000000,,2013-06-24 20:22:00,
2013-06-24 12:33:00,58.0,52.0,29.68,WNW,292,2.0,3.0,81,0.00,,,0.00,661.000000,,2013-06-24 20:33:00,
2013-06-24 12:43:00,57.0,52.0,29.69,West,275,1.0,5.0,82,0.00,,,0.00,352.000000,,2013-06-24 20:43:00,
2013-06-24 13:43:00,58.0,52.0,29.69,NNW,347,1.0,6.0,81,0.00,,,0.00,475.000000,,2013-06-24 21:43:00,
2013-06-24 13:52:00,58.0,52.0,29.69,NNW,347,1.0,6.0,81,0.00,,,0.00,475.000000,,2013-06-24 21:52:00,
2013-06-24 14:12:00,57.0,52.0,29.69,WSW,246,2.0,6.0,82,0.00,,,0.00,591.000000,,2013-06-24 22:12:00,
2013-06-24 14:22:00,58.0,52.0,29.68,NW,324,1.0,6.0,81,0.00,,,0.00,981.000000,,2013-06-24 22:22:00,
2013-06-24 14:34:00,60.0,53.0,29.68,NNW,332,3.0,6.0,79,0.00,,,0.00,974.000000,,2013-06-24 22:34:00,
2013-06-24 14:44:00,60.0,53.0,29.68,WSW,253,1.0,6.0,77,0.00,,,0.00,698.000000,,2013-06-24 22:44:00,
2013-06-24 14:53:00,60.0,53.0,29.68,WSW,253,1.0,6.0,77,0.00,,,0.00,698.000000,,2013-06-24 22:53:00,
2013-06-24 15:02:00,61.0,54.0,29.68,WNW,287,1.0,5.0,77,0.00,,,0.00,624.000000,,2013-06-24 23:02:00,
2013-06-24 15:43:00,59.0,52.0,29.68,NW,318,2.0,3.0,79,0.00,,,0.00,589.000000,,2013-06-24 23:43:00,
2013-06-24 16:33:00,60.0,53.0,29.67,WNW,291,1.0,6.0,79,0.00,,,0.00,564.000000,,2013-06-25 00:33:00,
2013-06-24 16:44:00,59.0,52.0,29.67,West,264,1.0,8.0,79,0.00,,,0.00,610.000000,,2013-06-25 00:44:00,
2013-06-24 17:02:00,59.0,52.0,29.67,NW,315,1.0,3.0,79,0.00,,,0.00,413.000000,,2013-06-25 01:02:00,
2013-06-24 17:12:00,59.0,52.0,29.67,NW,315,1.0,3.0,79,0.00,,,0.00,413.000000,,2013-06-25 01:12:00,
2013-06-24 17:33:00,58.0,52.0,29.67,WNW,303,3.0,6.0,81,0.00,,,0.00,703.000000,,2013-06-25 01:33:00,
2013-06-24 17:43:00,57.0,51.0,29.67,West,261,2.0,6.0,81,0.00,,,0.00,675.000000,,2013-06-25 01:43:00,
2013-06-24 17:52:00,58.0,52.0,29.66,SSW,195,2.0,6.0,80,0.00,,,0.00,615.000000,,2013-06-25 01:52:00,
2013-06-24 18:02:00,59.0,52.0,29.66,NNE,32,1.0,5.0,78,0.00,,,0.00,652.000000,,2013-06-25 02:02:00,
2013-06-24 18:11:00,59.0,52.0,29.66,NNE,32,1.0,5.0,78,0.00,,,0.00,652.000000,,2013-06-25 02:11:00,
2013-06-24 18:34:00,58.0,52.0,29.66,WSW,239,2.0,6.0,79,0.00,,,0.00,629.000000,,2013-06-25 02:34:00,
2013-06-24 18:43:00,57.0,51.0,29.66,South,187,3.0,6.0,80,0.00,,,0.00,573.000000,,2013-06-25 02:43:00,
2013-06-24 18:53:00,57.0,51.0,29.65,SSW,209,2.0,8.0,80,0.00,,,0.00,540.000000,,2013-06-25 02:53:00,
2013-06-24 19:02:00,57.0,51.0,29.65,SW,214,2.0,6.0,81,0.00,,,0.00,478.000000,,2013-06-25 03:02:00,
2013-06-24 19:12:00,57.0,51.0,29.65,SW,214,2.0,6.0,81,0.00,,,0.00,478.000000,,2013-06-25 03:12:00,
2013-06-24 19:34:00,57.0,51.0,29.65,West,263,1.0,3.0,80,0.00,,,0.00,56.000000,,2013-06-25 03:34:00,
2013-06-24 19:44:00,57.0,51.0,29.65,SW,220,1.0,3.0,80,0.00,,,0.00,49.000000,,2013-06-25 03:44:00,
2013-06-24 19:53:00,57.0,51.0,29.65,SSW,199,0.0,6.0,81,0.00,,,0.00,62.000000,,2013-06-25 03:53:00,
2013-06-24 20:01:00,56.0,50.0,29.65,SSW,200,1.0,3.0,81,0.00,,,0.00,54.000000,,2013-06-25 04:01:00,
2013-06-24 20:11:00,56.0,51.0,29.64,SSW,212,1.0,3.0,82,0.00,,,0.00,51.000000,,2013-06-25 04:11:00,
2013-06-24 20:33:00,55.0,50.0,29.64,South,189,2.0,7.0,84,0.00,,,0.00,294.000000,,2013-06-25 04:33:00,
2013-06-24 20:42:00,55.0,50.0,29.64,South,190,2.0,7.0,84,0.00,,,0.00,97.000000,,2013-06-25 04:42:00,
2013-06-24 20:52:00,55.0,50.0,29.64,South,190,2.0,7.0,84,0.00,,,0.00,97.000000,,2013-06-25 04:52:00,
2013-06-24 21:01:00,54.0,50.0,29.63,SW,219,1.0,6.0,85,0.00,,,0.00,72.000000,,2013-06-25 05:01:00,
2013-06-24 21:11:00,54.0,50.0,29.63,SW,219,1.0,6.0,85,0.00,,,0.00,72.000000,,2013-06-25 05:11:00,
2013-06-24 21:32:00,54.0,50.0,29.63,WSW,252,1.0,5.0,86,0.00,,,0.00,33.000000,,2013-06-25 05:32:00,
2013-06-24 21:44:00,54.0,50.0,29.63,South,180,1.0,5.0,86,0.00,,,0.00,42.000000,,2013-06-25 05:44:00,
2013-06-24 21:52:00,54.0,50.0,29.63,South,180,1.0,5.0,86,0.00,,,0.00,42.000000,,2013-06-25 05:52:00,
2013-06-24 22:01:00,54.0,50.0,29.63,South,181,2.0,5.0,87,0.00,,,0.00,39.000000,,2013-06-25 06:01:00,
2013-06-24 22:11:00,54.0,50.0,29.63,South,181,2.0,5.0,87,0.00,,,0.00,39.000000,,2013-06-25 06:11:00,
2013-06-24 22:33:00,54.0,50.0,29.63,South,180,2.0,6.0,87,0.00,,,0.00,56.000000,,2013-06-25 06:33:00,
2013-06-24 22:43:00,53.0,49.0,29.63,SSW,209,1.0,3.0,87,0.00,,,0.00,21.000000,,2013-06-25 06:43:00,
2013-06-24 23:02:00,53.0,50.0,29.63,SSW,198,1.0,3.0,88,0.00,,,0.00,16.000000,,2013-06-25 07:02:00,
2013-06-24 23:11:00,53.0,50.0,29.63,SSW,198,1.0,3.0,88,0.00,,,0.00,16.000000,,2013-06-25 07:11:00,
2013-06-24 23:22:00,52.0,49.0,29.63,SSW,196,1.0,3.0,88,0.00,,,0.00,14.000000,,2013-06-25 07:22:00,
2013-06-24 23:33:00,52.0,49.0,29.63,South,179,0.0,3.0,89,0.00,,,0.00,12.000000,,2013-06-25 07:33:00,
2013-06-24 23:43:00,52.0,49.0,29.63,South,187,0.0,3.0,90,0.00,,,0.00,7.000000,,2013-06-25 07:43:00,
2013-06-24 23:52:00,51.0,48.0,29.63,South,181,1.0,3.0,90,0.00,,,0.00,5.000000,,2013-06-25 07:52:00,